EWG4NJ LEZL-EDDL

Flight info

Callsign EWG4NJ
Flight time N/A
Altitude 38000
Route HIJ DCT SOTUK DCT TLD DCT DGO DCT DEVRO DCT BIKMU BIKMU1A
Aircraft A320/M-SDE3FGHIRWY/LB1

Departure

Time 2026-04-21 16:28
Airport Seville Airport (LEZL)

Arrival

Time N/A
Airport Düsseldorf Airport (EDDL)
Time Latitude Longitude Altitude Speed Heading
2026-04-21 16:13 37.42256 -5.89899 100 ft 0 kts 345°
2026-04-21 16:21 37.42244 -5.89895 100 ft 2 kts 327°
2026-04-21 16:21 37.42231 -5.89883 102 ft 2 kts 313°
2026-04-21 16:21 37.42221 -5.89866 101 ft 2 kts 288°
2026-04-21 16:22 37.42218 -5.89846 100 ft 2 kts 266°
2026-04-21 16:22 37.42220 -5.89826 101 ft 2 kts 251°
2026-04-21 16:22 37.42226 -5.89808 100 ft 2 kts 234°
2026-04-21 16:22 37.42229 -5.89802 101 ft 0 kts 226°
2026-04-21 16:24 37.42223 -5.89810 100 ft 3 kts 226°
2026-04-21 16:24 37.42195 -5.89844 102 ft 9 kts 225°
2026-04-21 16:24 37.42122 -5.89935 105 ft 17 kts 224°
2026-04-21 16:25 37.42049 -5.90053 107 ft 17 kts 256°
2026-04-21 16:25 37.42046 -5.90206 108 ft 18 kts 271°
2026-04-21 16:25 37.42029 -5.90302 108 ft 8 kts 212°
2026-04-21 16:25 37.41982 -5.90321 109 ft 7 kts 236°
2026-04-21 16:26 37.41979 -5.90407 109 ft 14 kts 270°
2026-04-21 16:26 37.41979 -5.90569 109 ft 24 kts 269°
2026-04-21 16:26 37.41978 -5.90804 105 ft 29 kts 270°
2026-04-21 16:26 37.41961 -5.90958 102 ft 18 kts 242°
2026-04-21 16:27 37.41899 -5.91094 103 ft 18 kts 239°
2026-04-21 16:27 37.41814 -5.91190 104 ft 18 kts 175°
2026-04-21 16:27 37.41785 -5.91147 104 ft 6 kts 89°
2026-04-21 16:27 37.41786 -5.90920 107 ft 62 kts 90°
2026-04-21 16:28 37.41790 -5.90087 108 ft 126 kts 89°
2026-04-21 16:28 37.41799 -5.88742 130 ft 174 kts 96°
2026-04-21 16:28 37.41778 -5.87289 843 ft 167 kts 95°
2026-04-21 16:28 37.41746 -5.85839 1470 ft 171 kts 98°
2026-04-21 16:29 37.41719 -5.84796 1708 ft 185 kts 96°
2026-04-21 16:29 37.41660 -5.82464 2203 ft 217 kts 95°
2026-04-21 16:29 37.41828 -5.80456 2603 ft 245 kts 83°
2026-04-21 16:29 37.42226 -5.78246 3094 ft 268 kts 75°
2026-04-21 16:30 37.43253 -5.76225 3813 ft 284 kts 42°
2026-04-21 16:30 37.44958 -5.75003 4706 ft 289 kts 21°